Regional Weather Roundup
Issued by NWS

Home | Current Version | Previous Version | Text Only | Print | Product List | Glossary Off
Versions: 1 2 3 4 5 6 7 8 9 10 11 12 13 14 15 16 17 18 19 20 21 22 23 24 25 26 27 28 29 30 31 32 33 34 35 36 37 38 39 40 41 42 43 44 45 46 47 48

000
ASUS43 KDMX 101907
RWRIA

WEATHER ROUNDUP FOR IOWA
NATIONAL WEATHER SERVICE DES MOINES IA
200 PM CDT THU JUL 10 2014

NOTE: "FAIR" INDICATES FEW OR NO CLOUDS BELOW 12,000 FEET WITH NO
SIGNIFICANT WEATHER AND/OR OBSTRUCTIONS TO VISIBILITY.

* - THESE STATIONS ARE NOT NWS STATIONS...THUS NOT UNDER NWS
QUALITY CONTROL.  THEY ALSO DO NOT REPORT WEATHER SUCH
AS PRECIPITATION OR FOG.

IAZ001>003-012>014-020>022-031>034-043>046-102000-
   NORTHWEST IOWA

CITY           SKY/WX    TMP DP  RH WIND       PRES   REMARKS
CARROLL *      SUNNY     81  64  57 S13G23    30.03F HX  82
CHEROKEE *     SUNNY     81  64  57 S16       30.00F HX  82
DENISON *      SUNNY     81  64  57 S14G24    30.01F HX  82
LE MARS *      SUNNY     82  66  57 S18G25    29.97F HX  85
ORANGE CITY *  SUNNY     84  63  48 S13G23    29.98F HX  85
SHELDON *      SUNNY     82  64  54 S16G24    29.97F HX  84
SIOUX CITY     SUNNY     84  68  58 S13G24    29.96F HX  87
SPENCER        SUNNY     81  62  52 S20G26    30.01F HX  82
STORM LAKE *   SUNNY     81  66  61 S16G25    30.03F HX  83
$$

IAZ055>058-069>071-079>083-090>094-102000-
   SOUTHWEST IOWA

CITY           SKY/WX    TMP DP  RH WIND       PRES   REMARKS
ATLANTIC *     SUNNY     81  63  54 S16       30.03F HX  82
AUDUBON *      SUNNY     84  66  54 SE13G18   30.05F HX  86
CLARINDA *     SUNNY     81  64  57 S14G20    30.05F HX  82
COUNCIL BLFS * SUNNY     81  70  69 S16G24    30.01F HX  84
CRESTON *      SUNNY     79  61  53 S13G22    30.08F HX  80
HARLAN  *      SUNNY     81  64  57 S18G24    30.06F HX  82
LAMONI         SUNNY     79  56  45 SE15G21   30.09F HX  80
RED OAK *      SUNNY     81  66  61 S15G23    30.03F HX  83
SHENANDOAH *   SUNNY     82  68  61 SE17G23   30.03F HX  85
$$

IAZ047>049-059>061-072>074-084-102000-
   CENTRAL IOWA

CITY           SKY/WX    TMP DP  RH WIND       PRES   REMARKS
AMES           SUNNY     81  60  48 S16G22    30.08F HX  82
ANKENY *       SUNNY     81  61  50 SE16G23   30.08F HX  81
CHARITON *     MOSUNNY   81  57  44 S14G21    30.11S HX  81
DES MOINES     MOSUNNY   83  56  39 S17       30.08F HX  82
GRINNELL*      SUNNY     79  57  47 S12       30.12S HX  80
KNOXVILLE *    PTSUNNY   81  59  47 S9        30.09F HX  81
MARSHALLTOWN   SUNNY     80  60  50 S16       30.09F HX  81
PELLA *        SUNNY     82  59  44 S7        30.12S HX  82
PERRY *          N/A     82  61  47 S16       30.06F HX  83
$$

IAZ004>006-015-016-023>025-035-036-102000-
   NORTH CENTRAL IOWA

CITY           SKY/WX    TMP DP  RH WIND       PRES   REMARKS
ALGONA *       SUNNY     81  59  47 S20       30.04F HX  81
CLARION *      SUNNY     81  57  44 S18       30.06F HX  81
ESTHERVILLE    SUNNY     81  59  47 S21G32    30.01F HX  81
FORT DODGE *   SUNNY     81  61  50 S15G22    30.06F HX  81
MASON CITY     SUNNY     82  60  47 S17G25    30.08F HX  82
FOREST CITY *  SUNNY     81  59  47 S15G22    30.06F HX  81
IOWA FALLS *     N/A     81  59  47 S13       30.09F HX  81
$$

IAZ007>011-017>019-026>030-037>042-050>054-066-102000-
   NORTHEAST IOWA

CITY           SKY/WX    TMP DP  RH WIND       PRES   REMARKS
CEDAR RAPIDS   SUNNY     79  58  48 S12       30.11F HX  80
CHARLES CITY * SUNNY     81  59  47 SW14      30.10S HX  81
CLINTON *      SUNNY     81  59  47 S5        30.16F HX  81
DECORAH *        N/A    N/A N/A N/A MISG        N/A
DUBUQUE        MOSUNNY   77  61  57 S9G17     30.14F
MONTICELLO *   MOSUNNY   79  61  53 S10       30.12F HX  80
OELWEIN *      MOSUNNY   81  61  50 S12       30.12F HX  81
WATERLOO       MOSUNNY   81  59  47 S14G22    30.09F HX  81
$$

IAZ064-065-067-068-078-102000-
   EAST CENTRAL IOWA

CITY           SKY/WX    TMP DP  RH WIND       PRES   REMARKS
DAVENPORT      MOSUNNY   78  58  49 S3        30.13F
IOWA CITY      SUNNY     80  61  52 S12       30.13F HX  81
MT. PLEASANT * SUNNY     81  55  41 SE10      30.13S HX  80
MUSCATINE *    SUNNY     82  59  44 SE10      30.12F HX  82
QUAD CITIES    SUNNY     80  59  48 S5        30.12F HX  81
$$

IAZ062-063-075>077-085>089-095>099-102000-
   SOUTHEAST IOWA

CITY           SKY/WX    TMP DP  RH WIND       PRES   REMARKS
BURLINGTON     SUNNY     81  60  48 S9        30.13F HX  82
FAIRFIELD *    SUNNY     81  59  47 S9        30.12S HX  81
FORT MADISON * MOSUNNY   82  61  47 S7        30.14S HX  83
KEOKUK *       MOSUNNY   79  59  50 VRB5      30.12F HX  80
OSKALOOSA *      N/A     81  57  44 S8        30.12S HX  81
CENTERVILLE *  SUNNY     77  63  61 SE8       30.13F
OTTUMWA        SUNNY     79  60  52 S10       30.11R HX  80
WASHINGTON *   SUNNY     82  57  42 S12       30.13R HX  82
$$

ABBREVIATIONS USED IN REMARKS
   TC - TEMPERATURES IN CELSIUS
  WCI - WIND CHILL INDEX
   HX - HEAT INDEX
  VSB - VISIBILITY
$$




USA.gov is the U.S. government's official web portal to all federal, state and local government web resources and services.